1507140001.1,18533,13.25,73712.3,-1.95,-17.41,-18.07,0,*5C
1507140002.36,18534,13.31,73718.0,-1.97,-17.41,-17.93,0,*5B
1507140003.61,18535,13.31,73720.0,-1.97,-17.41,-18.01,0,*5E
1507140004.83,18536,13.31,73726.8,-1.97,-17.31,-17.93,0,*5E
1507140006.09,18537,13.31,73722.8,-1.97,-17.41,-17.93,0,*58
1507140007.34,18538,13.25,73718.5,-1.97,-17.41,-17.93,0,*57
1507140008.57,18539,13.31,73720.8,-1.97,-17.25,-17.87,0,*51
1507140009.8,18540,13.25,73714.3,-1.97,-17.17,-17.73,0,*55
1507140011.03,18541,13.25,73714.8,-1.97,-17.25,-17.73,0,*55
1507140012.26,18542,13.25,73722.3,-1.97,-17.17,-17.73,0,*57
1507140013.49,18543,13.31,73726.0,-1.97,-17.17,-17.73,0,*56
1507140014.72,18544,13.25,73696.5,-1.97,-17.11,-17.69,0,*5C
1507140015.97,18545,13.31,73688.8,-1.97,-17.11,-17.59,0,*5E
1507140017.19,18546,13.25,73688.3,-1.97,-17.11,-17.69,0,*5E
1507140018.42,18547,13.25,73680.5,-1.97,-17.11,-17.69,0,*5F
1507140019.7,18548,13.25,73674.8,-1.99,-17.17,-17.63,0,*52
1507140020.99,18549,13.31,73670.0,-1.99,-17.07,-17.63,0,*52
1507140022.24,18550,13.25,73658.5,-1.99,-17.17,-17.73,0,*5A
1507140023.47,18551,13.25,73654.8,-2.01,-17.21,-17.73,0,*5C
1507140024.76,18552,13.25,73674.5,-1.99,-17.17,-17.59,0,*50
1507140026.05,18553,13.31,73674.3,-1.99,-17.17,-17.59,0,*51
1507140027.31,18554,13.25,73676.8,-1.99,-17.17,-17.49,0,*57
1507140028.57,18555,13.25,73682.0,-1.99,-17.17,-17.49,0,*56
1507140029.83,18556,13.25,73692.3,-2.01,-17.17,-17.59,0,*56
1507140031.09,18557,13.25,73682.5,-1.99,-17.17,-17.49,0,*54
1507140032.36,18558,13.25,73682.5,-1.99,-17.17,-17.35,0,*50
1507140033.61,18559,13.25,73682.5,-2.01,-17.07,-17.45,0,*55
1507140034.88,18560,13.25,73680.0,-1.99,-17.17,-17.35,0,*5B
1507140036.14,18561,13.25,73682.5,-1.99,-17.07,-17.31,0,*5F
1507140037.39,18562,13.25,73688.5,-2.01,-17.03,-17.21,0,*5B
1507140038.63,18563,13.25,73692.3,-2.01,-16.93,-17.07,0,*56
1507140039.88,18564,13.25,73710.5,-1.99,-16.93,-17.03,0,*57
1507140041.13,18565,13.25,73702.3,-1.99,-16.93,-17.03,0,*56
1507140042.37,18566,13.25,73718.5,-2.01,-16.89,-17.03,0,*5C
1507140043.57,18567,13.25,73714.0,-2.01,-16.89,-16.93,0,*55
1507140044.83,18568,13.25,73712.8,-1.99,-16.69,-16.75,0,*5E
1507140046.04,18569,13.25,73710.8,-2.01,-16.55,-16.59,0,*5C
1507140047.24,18570,13.25,73702.3,-2.01,-15.99,-15.99,0,*58
1507140048.5,18571,13.25,73708.3,-1.99,-15.81,-15.71,0,*54
1507140049.72,18572,13.25,73704.8,-1.99,-15.99,-16.03,0,*58
1507140051.0,18573,13.31,73708.8,-1.99,-16.27,-16.31,0,*5E
1507140052.23,18574,13.25,73700.0,-1.99,-16.45,-16.41,0,*5A
1507140053.44,18575,13.25,73682.8,-1.97,-16.41,-16.41,0,*51
1507140054.65,18576,13.25,73680.8,-1.97,-16.41,-16.41,0,*52
1507140055.88,18577,13.31,73692.0,-1.95,-16.41,-16.41,0,*51
1507140057.11,18578,13.25,73678.0,-1.97,-16.23,-15.99,0,*5E
1507140058.34,18579,13.31,73670.8,-1.95,-15.99,-15.95,0,*53
1507140059.6,18580,13.31,73678.5,-1.97,-16.13,-16.09,0,*50
1507140060.85,18581,13.25,73678.0,-1.97,-16.27,-16.13,0,*5D
1507140062.11,18582,13.25,73682.3,-1.97,-16.23,-16.09,0,*51
1507140063.39,18583,13.25,73672.8,-1.95,-16.23,-16.09,0,*52
1507140064.68,18584,13.25,73678.0,-1.95,-16.23,-16.09,0,*55
1507140065.93,18585,13.25,73690.8,-1.95,-16.23,-15.99,0,*5E
1507140067.19,18586,13.25,73676.8,-1.97,-16.23,-16.09,0,*55
1507140068.42,18587,13.25,73666.8,-1.97,-16.37,-16.09,0,*51
1507140069.68,18588,13.31,73674.0,-1.95,-16.37,-16.09,0,*5C
1507140070.91,18589,13.25,73676.0,-1.97,-16.37,-16.13,0,*54
1507140072.18,18590,13.25,73686.8,-1.95,-16.37,-16.09,0,*55
1507140073.46,18591,13.25,73686.8,-1.95,-16.23,-16.09,0,*51
1507140074.72,18592,13.25,73690.8,-1.95,-16.27,-15.99,0,*5C
1507140075.95,18593,13.25,73690.3,-1.95,-16.37,-15.99,0,*5C
1507140077.2,18594,13.25,73684.8,-1.95,-16.27,-15.99,0,*5A
1507140078.49,18595,13.25,73686.3,-1.95,-16.13,-15.81,0,*55
1507140079.79,18596,13.25,73694.5,-1.95,-16.13,-15.81,0,*56
1507140081.08,18597,13.25,73684.0,-1.95,-16.13,-15.81,0,*57
1507140082.33,18598,13.25,73686.5,-1.95,-15.99,-15.81,0,*59
1507140083.59,18599,13.25,73676.8,-1.95,-16.09,-15.75,0,*59
1507140084.83,18600,13.25,73682.8,-1.93,-16.09,-15.75,0,*5C
1507140086.04,18601,13.25,73684.0,-1.93,-16.03,-15.75,0,*57
1507140087.28,18602,13.25,73676.0,-1.93,-16.09,-15.75,0,*5E
1507140088.54,18603,13.25,73680.3,-1.91,-16.09,-15.75,0,*5D
1507140089.78,18604,13.25,73678.5,-1.93,-16.09,-15.75,0,*58
1507140091.02,18605,13.25,73672.0,-1.93,-16.09,-15.71,0,*5D
1507140092.23,18606,13.31,73686.0,-1.93,-15.95,-15.71,0,*58
1507140093.46,18607,13.31,73670.3,-1.95,-15.99,-15.75,0,*57
1507140094.68,18608,13.25,73668.8,-1.95,-15.99,-15.75,0,*58
1507140095.89,18609,13.25,73668.8,-1.93,-16.03,-15.75,0,*5F
1507140097.1,18610,13.25,73676.3,-1.93,-16.03,-15.75,0,*57
1507140098.38,18611,13.25,73680.0,-1.95,-16.23,-15.81,0,*59
1507140099.67,18612,13.25,73662.3,-1.95,-16.23,-15.81,0,*5A
1507140100.9,18613,13.25,73668.0,-1.93,-16.17,-15.75,0,*51
1507140102.14,18614,13.25,73676.0,-1.93,-16.23,-15.75,0,*51
1507140103.37,18615,13.25,73666.3,-1.93,-16.17,-15.75,0,*57
1507140104.61,18616,13.25,73682.8,-1.93,-16.17,-15.75,0,*54
1507140105.84,18617,13.25,73690.5,-1.93,-16.17,-15.75,0,*55
1507140107.13,18618,13.25,73688.0,-1.95,-16.13,-15.81,0,*53
1507140108.39,18619,13.25,73688.8,-1.95,-16.09,-15.67,0,*51
1507140109.68,18620,13.25,73702.8,-1.95,-16.13,-15.81,0,*58
1507140110.97,18621,13.25,73702.8,-1.95,-16.23,-15.81,0,*5A
1507140112.2,18622,13.25,73706.8,-1.97,-16.09,-15.67,0,*5B
1507140113.45,18623,13.25,73698.8,-1.95,-16.09,-15.67,0,*58
1507140114.69,18624,13.25,73706.3,-1.97,-16.09,-15.63,0,*59
1507140115.91,18625,13.25,73704.8,-1.95,-15.99,-15.63,0,*50
1507140117.15,18626,13.25,73702.0,-1.95,-15.95,-15.49,0,*57
1507140118.39,18627,13.25,73694.0,-1.95,-15.95,-15.53,0,*5D
1507140119.65,18628,13.25,73706.8,-1.95,-15.81,-15.49,0,*5C
1507140120.88,18629,13.25,73702.8,-1.97,-15.75,-15.35,0,*5F
1507140122.11,18630,13.31,73700.8,-1.97,-15.67,-15.35,0,*54
1507140123.32,18631,13.25,73702.8,-1.97,-15.67,-15.25,0,*54
1507140124.58,18632,13.25,73698.0,-1.95,-15.75,-15.21,0,*52
1507140125.82,18633,13.25,73694.8,-1.95,-15.67,-15.25,0,*54
1507140127.03,18634,13.31,73698.0,-1.97,-15.75,-15.25,0,*52
1507140128.26,18635,13.31,73702.8,-1.97,-15.75,-15.35,0,*52
1507140129.52,18636,13.31,73698.3,-1.95,-15.67,-15.35,0,*50
1507140130.75,18637,13.25,73694.0,-1.97,-15.81,-15.25,0,*5A
1507140131.99,18638,13.25,73696.0,-1.95,-15.67,-15.25,0,*5F
1507140133.24,18639,13.31,73692.8,-1.95,-15.63,-15.21,0,*5E
1507140134.45,18640,13.31,73692.3,-1.97,-15.67,-15.11,0,*55
1507140135.65,18641,13.25,73692.8,-1.97,-15.67,-15.07,0,*53
1507140136.85,18642,13.25,73696.5,-1.97,-15.67,-15.11,0,*57
1507140138.05,18643,13.31,73706.5,-1.97,-15.53,-15.11,0,*51
1507140139.26,18644,13.31,73710.5,-1.97,-15.63,-15.07,0,*52
1507140140.46,18645,13.25,73698.8,-1.97,-15.49,-15.07,0,*5B
1507140141.72,18646,13.25,73694.5,-1.99,-15.53,-14.97,0,*55
1507140143.0,18647,13.25,73690.3,-1.99,-15.43,-15.01,0,*5B
1507140144.23,18648,13.25,73698.5,-1.97,-15.49,-14.97,0,*5E
1507140145.45,18649,13.25,73714.0,-1.97,-15.49,-14.93,0,*5B
1507140146.7,18650,13.25,73714.8,-1.97,-15.39,-14.93,0,*54
1507140147.93,18651,13.25,73712.3,-1.97,-15.39,-14.89,0,*5E
1507140149.16,18652,13.25,73720.3,-1.97,-15.25,-14.79,0,*5F
1507140150.41,18653,13.25,73712.0,-1.97,-15.21,-14.75,0,*56
1507140151.63,18654,13.25,73698.0,-1.97,-15.11,-14.75,0,*52
1507140152.87,18655,13.25,73702.8,-1.97,-15.21,-14.75,0,*50
1507140154.13,18656,13.31,73706.0,-1.99,-15.29,-14.83,0,*5C
1507140155.36,18657,13.25,73702.3,-1.97,-15.25,-14.79,0,*5A
1507140156.59,18658,13.31,73696.3,-1.97,-15.25,-14.79,0,*55
1507140157.82,18659,13.31,73710.5,-1.97,-15.25,-14.79,0,*54
1507140159.07,18660,13.25,73712.5,-1.97,-15.21,-14.79,0,*5A
1507140160.31,18661,13.25,73710.8,-1.97,-15.21,-14.75,0,*57
1507140161.51,18662,13.25,73710.8,-1.97,-15.11,-14.65,0,*56
1507140162.73,18663,13.25,73706.3,-1.97,-15.11,-14.75,0,*56
1507140163.93,18664,13.25,73698.8,-1.97,-15.11,-14.65,0,*50
1507140165.15,18665,13.25,73698.8,-1.97,-14.97,-14.65,0,*5E
1507140166.37,18666,13.31,73698.3,-1.99,-15.11,-14.69,0,*50
1507140167.59,18667,13.25,73690.8,-1.97,-14.97,-14.61,0,*58
1507140168.81,18668,13.25,73684.0,-1.97,-14.97,-14.61,0,*57
1507140170.06,18669,13.25,73672.3,-1.99,-14.97,-14.69,0,*50
1507140171.3,18670,13.31,73678.0,-1.99,-15.01,-14.69,0,*56
1507140172.58,18671,13.25,73682.3,-1.99,-15.01,-14.79,0,*56
1507140173.83,18672,13.25,73680.3,-1.99,-14.97,-14.65,0,*56
1507140175.08,18673,13.25,73680.3,-1.99,-14.97,-14.65,0,*57
1507140176.34,18674,13.25,73696.5,-1.99,-14.93,-14.65,0,*54
1507140177.59,18675,13.25,73700.3,-1.99,-14.93,-14.65,0,*55
1507140178.85,18676,13.25,73704.8,-2.01,-14.79,-14.55,0,*53
1507140180.09,18677,13.25,73706.5,-1.99,-14.69,-14.43,0,*56
1507140181.35,18678,13.25,73684.3,-1.99,-14.55,-14.29,0,*5A
1507140182.61,18679,13.25,73684.0,-1.99,-14.51,-14.29,0,*5F
1507140183.87,18680,13.25,73678.3,-1.99,-14.43,-14.23,0,*50
1507140185.07,18681,13.25,73688.8,-1.97,-14.37,-14.23,0,*5C
1507140186.34,18682,13.25,73690.0,-1.95,-14.47,-14.37,0,*5F
1507140187.56,18683,13.25,73678.3,-1.97,-14.75,-14.61,0,*5E
1507140188.76,18684,13.31,73646.3,-1.97,-14.65,-14.61,0,*58
1507140189.99,18685,13.25,73658.3,-1.97,-14.65,-14.51,0,*5A
1507140191.19,18686,13.25,73674.3,-1.97,-14.61,-14.61,0,*5E
1507140192.39,18687,13.25,73678.8,-1.97,-14.65,-14.65,0,*5F
1507140193.61,18688,13.25,73672.3,-1.97,-14.75,-14.61,0,*55
1507140194.86,18689,13.25,73678.5,-1.97,-14.75,-14.75,0,*51
1507140196.09,18690,13.25,73690.0,-1.97,-14.75,-14.65,0,*58
1507140197.34,18691,13.25,73678.8,-1.97,-14.75,-14.75,0,*58
1507140198.59,18692,13.25,73688.0,-1.97,-14.79,-14.75,0,*57
1507140199.81,18693,13.25,73708.3,-1.97,-14.75,-14.65,0,*5B
1507140201.01,18694,13.25,73708.3,-1.97,-14.65,-14.61,0,*59
1507140202.21,18695,13.31,73688.8,-1.97,-14.11,-14.11,0,*5C
1507140203.42,18696,13.25,73692.8,-2.01,-14.11,-14.15,0,*57
1507140204.69,18697,13.25,73684.0,-1.99,-14.05,-14.15,0,*51
1507140205.91,18698,13.25,73680.5,-1.97,-13.79,-13.73,0,*5B
1507140207.11,18699,13.25,73686.3,-1.97,-13.65,-13.73,0,*57
1507140208.36,18700,13.25,73694.5,-1.95,-13.73,-13.79,0,*59
1507140209.58,18701,13.25,73698.5,-1.95,-13.73,-13.93,0,*5C
1507140210.84,18702,13.31,73694.8,-1.95,-13.93,-14.05,0,*59
1507140212.06,18703,13.25,73688.5,-1.95,-13.93,-14.11,0,*5D
1507140213.33,18704,13.25,73694.3,-1.93,-13.83,-13.97,0,*54
1507140214.62,18705,13.25,73700.3,-1.91,-13.83,-14.01,0,*5F
1507140215.85,18706,13.25,73694.5,-1.93,-13.87,-14.15,0,*5F
1507140217.11,18707,13.25,73692.0,-1.91,-14.05,-14.29,0,*5E
1507140218.37,18708,13.25,73672.8,-1.91,-14.01,-14.19,0,*56
1507140219.61,18709,13.25,73678.3,-1.93,-13.97,-14.15,0,*51
1507140220.87,18710,13.25,73680.0,-1.91,-13.87,-14.15,0,*5A
1507140222.15,18711,13.25,73672.8,-1.91,-13.87,-14.05,0,*5A
1507140223.43,18712,13.25,73652.5,-1.91,-13.87,-14.05,0,*59
1507140224.7,18713,13.25,73652.8,-1.91,-14.01,-14.29,0,*5F
1507140225.93,18714,13.25,73644.5,-1.93,-14.01,-14.29,0,*5A
1507140227.22,18715,13.25,73660.0,-1.91,-13.83,-14.05,0,*5A
1507140228.45,18716,13.25,73674.0,-1.93,-13.87,-14.19,0,*52
1507140229.71,18717,13.25,73678.5,-1.91,-13.97,-14.29,0,*53
1507140230.98,18718,13.25,73682.5,-1.91,-13.97,-14.29,0,*5C
1507140232.24,18719,13.25,73680.8,-1.91,-13.97,-14.33,0,*56
1507140233.51,18720,13.31,73690.3,-1.93,-14.01,-14.47,0,*55
1507140234.77,18721,13.25,73680.0,-1.93,-14.05,-14.55,0,*53
1507140236.03,18722,13.25,73676.3,-1.91,-14.05,-14.61,0,*55
1507140237.32,18723,13.25,73686.0,-1.91,-14.05,-14.55,0,*53
1507140238.61,18724,13.25,73672.5,-1.91,-14.05,-14.55,0,*54
1507140239.9,18725,13.25,73680.5,-1.91,-14.01,-14.47,0,*52
1507140241.2,18726,13.25,73676.8,-1.91,-14.01,-14.47,0,*51
1507140242.47,18727,13.25,73680.0,-1.91,-13.87,-14.43,0,*5D
1507140243.77,18728,13.25,73654.3,-1.91,-13.97,-14.47,0,*57
1507140245.02,18729,13.25,73656.5,-1.89,-13.87,-14.43,0,*5A
1507140246.27,18730,13.25,73664.0,-1.87,-13.87,-14.37,0,*5F
1507140247.53,18731,13.25,73650.0,-1.89,-13.97,-14.51,0,*51
1507140248.79,18732,13.25,73670.0,-1.89,-14.01,-14.51,0,*5A
1507140250.06,18733,13.25,73668.3,-1.89,-14.01,-14.55,0,*5F
1507140251.26,18734,13.25,73680.8,-1.89,-14.11,-14.69,0,*56
1507140252.47,18735,13.25,73666.5,-1.89,-14.29,-14.89,0,*52
1507140253.71,18736,13.25,73662.5,-1.89,-14.23,-14.83,0,*51
1507140254.95,18737,13.25,73656.8,-1.89,-14.23,-14.83,0,*50
1507140256.19,18738,13.25,73690.8,-1.91,-14.19,-14.89,0,*55
1507140257.46,18739,13.25,73688.3,-1.91,-14.19,-14.83,0,*5E
1507140258.73,18740,13.25,73684.8,-1.91,-14.15,-14.83,0,*5C
1507140259.99,18741,13.25,73680.8,-1.91,-14.19,-14.83,0,*51
1507140261.23,18742,13.25,73700.5,-1.91,-14.19,-14.89,0,*58
1507140262.48,18743,13.31,73710.5,-1.91,-14.15,-14.89,0,*55
1507140263.74,18744,13.25,73694.8,-1.91,-14.15,-14.93,0,*59
1507140265.0,18745,13.25,73702.0,-1.91,-14.29,-14.93,0,*57
1507140266.23,18746,13.25,73716.3,-1.93,-14.29,-14.93,0,*56
1507140267.5,18747,13.31,73722.3,-1.91,-14.19,-14.93,0,*56
1507140268.73,18748,13.25,73710.0,-1.93,-14.29,-14.93,0,*58
1507140269.96,18749,13.25,73712.8,-1.93,-14.33,-15.01,0,*58
1507140271.16,18750,13.25,73718.5,-1.93,-14.29,-15.07,0,*5D
1507140272.42,18751,13.25,73718.5,-1.93,-14.43,-15.01,0,*56
1507140273.68,18752,13.25,73702.8,-1.91,-14.55,-15.15,0,*55
1507140274.91,18753,13.25,73690.0,-1.93,-14.43,-15.07,0,*52
1507140276.11,18754,13.25,73690.0,-1.93,-14.33,-15.07,0,*52
1507140277.32,18755,13.25,73688.5,-1.93,-14.33,-15.07,0,*53
1507140278.56,18756,13.31,73694.3,-1.95,-14.37,-15.07,0,*52
1507140279.79,18757,13.25,73680.3,-1.95,-14.37,-15.07,0,*53
1507140281.03,18758,13.25,73682.8,-1.95,-14.37,-15.07,0,*5C
1507140282.26,18759,13.25,73684.5,-1.95,-14.33,-15.11,0,*5E
1507140283.49,18760,13.25,73696.5,-1.95,-14.33,-15.07,0,*53
1507140284.73,18761,13.25,73692.5,-1.95,-14.23,-15.07,0,*53
1507140285.97,18762,13.25,73698.5,-1.95,-14.37,-15.07,0,*55
1507140287.2,18763,13.25,73702.8,-1.95,-14.37,-15.11,0,*53
1507140288.43,18764,13.25,73706.5,-1.95,-14.33,-15.11,0,*50
1507140289.64,18765,13.31,73712.0,-1.97,-14.23,-15.11,0,*52
1507140290.88,18766,13.25,73706.3,-1.95,-14.23,-15.07,0,*54
1507140292.09,18767,13.25,73700.8,-1.97,-14.19,-15.07,0,*5E
1507140293.33,18768,13.25,73704.5,-1.97,-14.19,-14.97,0,*59
1507140294.62,18769,13.25,73722.3,-1.95,-14.05,-14.93,0,*53
1507140295.88,18770,13.25,73712.0,-1.97,-14.05,-14.97,0,*5D
1507140297.15,18771,13.31,73716.0,-1.95,-14.01,-14.89,0,*55
1507140298.4,18772,13.25,73720.5,-1.97,-14.01,-14.93,0,*5F
1507140299.63,18773,13.31,73714.3,-1.97,-13.79,-14.61,0,*5B
1507140300.89,18774,13.25,73682.8,-1.95,-13.73,-14.47,0,*50
1507140302.15,18775,13.25,73666.3,-1.95,-13.65,-14.47,0,*56
1507140303.41,18776,13.25,73666.3,-1.95,-13.73,-14.51,0,*55
1507140304.64,18777,13.31,73668.5,-1.95,-13.73,-14.61,0,*57
1507140305.9,18778,13.25,73648.0,-1.95,-13.87,-14.89,0,*55
1507140307.14,18779,13.25,73652.8,-1.97,-14.01,-14.89,0,*5F
1507140308.43,18780,13.25,73676.3,-1.95,-14.05,-14.93,0,*54
1507140309.72,18781,13.25,73690.8,-1.95,-14.05,-14.97,0,*51
1507140310.98,18782,13.25,73692.5,-1.93,-14.05,-14.93,0,*50
1507140312.22,18783,13.25,73700.8,-1.93,-14.01,-14.89,0,*5E
1507140313.48,18784,13.25,73708.5,-1.93,-14.01,-14.93,0,*52
1507140314.74,18785,13.25,73706.0,-1.93,-14.05,-14.93,0,*57
1507140316.01,18786,13.25,73710.0,-1.93,-14.05,-14.93,0,*54
1507140317.27,18787,13.25,73708.8,-1.95,-14.11,-14.97,0,*52
1507140318.51,18788,13.25,73712.8,-1.95,-14.11,-15.07,0,*55
1507140319.8,18789,13.25,73678.5,-1.95,-14.05,-14.97,0,*59
1507140321.09,18790,13.25,73684.0,-1.95,-14.05,-14.97,0,*51
1507140322.34,18791,13.31,73664.5,-1.95,-13.93,-14.93,0,*5C
1507140323.63,18792,13.25,73654.0,-1.95,-14.01,-14.93,0,*53
1507140324.92,18793,13.25,73680.3,-1.95,-14.01,-14.93,0,*52
1507140326.21,18794,13.31,73666.0,-1.91,-13.97,-14.93,0,*59
1507140327.47,18795,13.25,73662.3,-1.93,-14.01,-14.93,0,*52
1507140328.71,18796,13.31,73678.5,-1.93,-14.15,-14.93,0,*54
1507140329.95,18797,13.25,73686.8,-1.93,-14.05,-15.07,0,*58
1507140331.19,18798,13.31,73684.5,-1.93,-14.15,-15.01,0,*50
1507140332.42,18799,13.25,73686.8,-1.95,-14.11,-15.07,0,*55
1507140333.66,18800,13.25,73680.3,-1.95,-14.19,-15.07,0,*52
1507140334.9,18801,13.25,73684.8,-1.95,-14.19,-15.11,0,*54
1507140336.12,18802,13.25,73696.0,-1.93,-14.15,-15.07,0,*5A
1507140337.35,18803,13.25,73704.0,-1.95,-14.19,-15.11,0,*56
1507140338.59,18804,13.25,73702.3,-1.95,-14.23,-15.11,0,*58
1507140339.83,18805,13.25,73704.3,-1.95,-14.19,-15.11,0,*50
1507140341.07,18806,13.25,73720.0,-1.95,-14.33,-15.07,0,*5C
1507140342.31,18807,13.25,73710.5,-1.95,-14.23,-15.25,0,*5C
1507140343.55,18808,13.25,73702.3,-1.95,-14.33,-15.25,0,*52
1507140344.79,18809,13.25,73708.3,-1.95,-14.33,-15.25,0,*53
1507140346.03,18810,13.31,73698.8,-1.95,-14.33,-15.25,0,*5B
1507140347.29,18811,13.31,73702.5,-1.95,-14.33,-15.35,0,*5B
1507140348.52,18812,13.25,73706.5,-1.97,-14.33,-15.35,0,*5A
1507140349.73,18813,13.25,73708.0,-1.97,-14.37,-15.25,0,*5E
1507140350.94,18814,13.25,73710.3,-1.97,-14.37,-15.25,0,*59
1507140352.16,18815,13.25,73710.3,-1.97,-14.37,-15.25,0,*58
1507140353.42,18816,13.25,73700.5,-1.95,-14.37,-15.21,0,*5D
1507140354.66,18817,13.25,73706.8,-1.95,-14.37,-15.25,0,*58
1507140355.89,18818,13.25,73708.0,-1.97,-14.37,-15.35,0,*54
1507140357.13,18819,13.25,73700.0,-1.95,-14.33,-15.25,0,*52
1507140358.37,18820,13.25,73700.0,-1.97,-14.33,-15.39,0,*57
1507140359.58,18821,13.25,73698.0,-1.97,-14.33,-15.25,0,*5B
1507140360.82,18822,13.25,73698.3,-1.95,-14.33,-15.25,0,*5A
1507140362.06,18823,13.25,73696.5,-1.95,-14.33,-15.25,0,*5B
1507140363.29,18824,13.25,73686.5,-1.97,-14.33,-15.39,0,*53
1507140364.55,18825,13.25,73690.0,-1.97,-14.47,-15.35,0,*5D
1507140365.85,18826,13.25,73690.8,-1.99,-14.51,-15.43,0,*56
1507140367.14,18827,13.25,73698.5,-1.99,-14.51,-15.39,0,*5A
1507140368.38,18828,13.25,73704.0,-1.97,-14.37,-15.39,0,*5B
1507140369.64,18829,13.31,73710.8,-1.95,-14.37,-15.39,0,*58
1507140370.91,18830,13.31,73710.3,-1.99,-14.37,-15.43,0,*51
1507140372.17,18831,13.25,73708.3,-1.99,-14.37,-15.39,0,*5D
1507140373.46,18832,13.25,73712.3,-1.99,-14.43,-15.43,0,*50
1507140374.75,18833,13.25,73706.3,-1.99,-14.51,-15.43,0,*52
1507140376.02,18834,13.25,73714.3,-2.01,-14.51,-15.43,0,*57
1507140377.27,18835,13.25,73716.5,-2.01,-14.43,-15.43,0,*55
1507140378.54,18836,13.25,73712.3,-2.01,-14.51,-15.57,0,*50
1507140379.78,18837,13.25,73710.0,-1.97,-14.47,-15.49,0,*55
1507140381.05,18838,13.25,73710.3,-2.01,-14.51,-15.39,0,*56
1507140382.34,18839,13.25,73714.0,-1.99,-14.51,-15.43,0,*58
1507140383.58,18840,13.25,73714.8,-2.01,-14.51,-15.53,0,*55
1507140384.87,18841,13.31,73718.0,-1.99,-14.55,-15.43,0,*53
1507140386.14,18842,13.25,73722.8,-1.99,-14.55,-15.53,0,*51
1507140387.4,18843,13.25,73712.3,-2.01,-14.51,-15.43,0,*57
1507140388.67,18844,13.25,73708.8,-1.99,-14.51,-15.53,0,*53
1507140389.96,18845,13.25,73714.8,-1.99,-14.51,-15.39,0,*5E
1507140391.23,18846,13.25,73718.8,-2.01,-14.51,-15.43,0,*52
1507140392.46,18847,13.25,73708.0,-2.01,-14.37,-15.39,0,*5E
1507140393.71,18848,13.25,73714.0,-1.99,-14.37,-15.29,0,*52
1507140394.95,18849,13.25,73700.0,-2.01,-14.43,-15.29,0,*52
1507140396.22,18850,13.25,73688.0,-1.99,-14.43,-15.25,0,*54
1507140397.48,18851,13.25,73684.3,-1.99,-14.43,-15.25,0,*55
1507140398.72,18852,13.25,73692.8,-2.01,-14.43,-15.29,0,*58
1507140399.96,18853,13.25,73694.3,-2.01,-14.43,-15.29,0,*59
1507140401.18,18854,13.25,73690.0,-2.01,-14.37,-15.25,0,*51
1507140402.44,18855,13.25,73692.0,-1.99,-14.43,-15.15,0,*52
1507140403.68,18856,13.25,73704.0,-2.01,-14.43,-15.29,0,*5C
1507140404.94,18857,13.25,73694.8,-1.99,-14.43,-15.25,0,*53
1507140406.17,18858,13.25,73704.3,-1.97,-14.37,-15.21,0,*55
1507140407.39,18859,13.25,73710.0,-2.01,-14.37,-15.25,0,*5C
1507140408.63,18860,13.25,73710.5,-2.01,-14.51,-15.25,0,*56
1507140409.88,18861,13.25,73702.8,-2.01,-14.51,-15.29,0,*5B
1507140411.12,18862,13.25,73706.8,-2.01,-14.51,-15.29,0,*58
1507140412.36,18863,13.25,73706.5,-2.01,-14.65,-15.39,0,*5F
1507140413.59,18864,13.25,73696.8,-2.01,-14.65,-15.39,0,*58
1507140414.79,18865,13.25,73692.8,-2.01,-14.69,-15.53,0,*59
1507140416.02,18866,13.25,73696.3,-2.01,-14.69,-15.43,0,*5B
1507140417.27,18867,13.25,73692.3,-1.99,-14.69,-15.43,0,*58
1507140418.55,18868,13.25,73692.3,-1.99,-14.79,-15.57,0,*53
1507140419.8,18869,13.25,73688.5,-2.01,-14.93,-15.57,0,*54
1507140421.03,18870,13.25,73680.5,-2.01,-14.83,-15.67,0,*5E
1507140422.28,18871,13.25,73674.0,-2.01,-15.01,-15.85,0,*58
1507140423.53,18872,13.25,73680.0,-1.99,-15.01,-15.71,0,*52
1507140424.75,18873,13.25,73688.8,-2.01,-14.93,-15.67,0,*5C
1507140425.97,18874,13.25,73688.8,-2.01,-14.93,-15.67,0,*5B
1507140427.22,18875,13.25,73682.5,-1.99,-14.93,-15.67,0,*58
1507140428.45,18876,13.25,73690.0,-2.01,-14.93,-15.71,0,*5E
1507140429.67,18877,13.25,73690.5,-2.05,-14.97,-15.67,0,*58
1507140430.92,18878,13.25,73702.5,-2.05,-14.97,-15.57,0,*54
1507140432.14,18879,13.25,73698.8,-2.05,-14.89,-15.49,0,*55
1507140433.38,18880,13.25,73686.8,-2.05,-14.89,-15.57,0,*5C
1507140434.58,18881,13.25,73684.5,-2.05,-14.89,-15.63,0,*5A
1507140435.81,18882,13.25,73688.5,-2.05,-15.01,-15.71,0,*5B
1507140437.04,18883,13.25,73698.3,-2.05,-15.01,-15.71,0,*5A
1507140438.26,18884,13.25,73702.8,-2.01,-14.97,-15.67,0,*50
1507140439.49,18885,13.25,73702.0,-2.05,-15.01,-15.71,0,*5C
1507140440.76,18886,13.25,73700.0,-2.07,-14.97,-15.57,0,*57
1507140442.02,18887,13.25,73722.3,-2.05,-14.97,-15.57,0,*54
1507140443.3,18888,13.25,73724.5,-2.07,-14.97,-15.43,0,*5C
1507140444.58,18889,13.25,73714.0,-2.07,-14.97,-15.43,0,*5D
1507140445.86,18890,13.25,73712.0,-2.07,-14.97,-15.43,0,*55
1507140447.15,18891,13.25,73706.0,-2.07,-14.97,-15.43,0,*54
1507140448.43,18892,13.25,73704.5,-2.07,-14.75,-15.35,0,*5A
1507140449.66,18893,13.25,73694.0,-2.07,-14.69,-15.15,0,*54
1507140450.95,18894,13.25,73690.8,-2.07,-14.83,-15.21,0,*50
1507140452.21,18895,13.25,73664.5,-2.05,-14.55,-15.01,0,*5A
1507140453.47,18896,13.25,73640.0,-2.07,-14.75,-15.07,0,*5F
1507140454.75,18897,13.25,73626.5,-2.07,-14.75,-15.35,0,*5F
1507140456.02,18898,13.25,73640.0,-2.07,-14.83,-15.29,0,*54
1507140457.29,18899,13.25,73650.5,-2.07,-14.83,-15.15,0,*5A
1507140458.55,18900,13.25,73652.3,-2.07,-14.89,-15.35,0,*53
1507140459.79,18901,13.25,73666.8,-2.07,-14.89,-15.29,0,*5F
1507140461.02,18902,13.25,73676.5,-2.05,-14.89,-15.21,0,*56
1507140462.29,18903,13.25,73676.8,-2.05,-14.83,-15.21,0,*5D
1507140463.53,18904,13.25,73688.8,-2.07,-14.89,-15.29,0,*5A
1507140464.77,18905,13.25,73672.0,-2.07,-14.89,-15.29,0,*5B
1507140466.04,18906,13.25,73684.8,-2.07,-14.83,-15.15,0,*5D
1507140467.3,18907,13.25,73700.8,-2.05,-14.83,-15.21,0,*59
1507140468.51,18908,13.25,73702.8,-2.05,-14.89,-15.15,0,*5B
1507140469.74,18909,13.25,73708.5,-2.05,-14.89,-15.21,0,*5D
1507140470.98,18910,13.25,73694.0,-2.07,-14.89,-15.15,0,*50
1507140472.25,18911,13.25,73710.3,-2.07,-14.83,-15.15,0,*5B
1507140473.51,18912,13.25,73712.8,-2.07,-14.83,-15.07,0,*5B
1507140474.79,18913,13.25,73706.3,-2.07,-14.75,-15.01,0,*55
1507140476.06,18914,13.25,73690.5,-2.07,-14.55,-14.89,0,*51
1507140477.33,18915,13.31,73698.3,-2.07,-14.55,-14.89,0,*50
1507140478.57,18916,13.25,73696.5,-2.05,-14.55,-14.89,0,*51
1507140479.78,18917,13.25,73672.5,-2.05,-14.61,-14.89,0,*57
1507140481.01,18918,13.25,73698.0,-2.05,-14.43,-14.69,0,*56
1507140482.28,18919,13.25,73698.5,-2.05,-14.47,-14.83,0,*57
1507140483.56,18920,13.25,73680.3,-2.07,-14.55,-14.75,0,*55
1507140484.82,18921,13.25,73686.5,-1.99,-14.37,-14.55,0,*56
1507140486.09,18922,13.25,73682.8,-2.05,-14.47,-14.75,0,*56
1507140487.37,18923,13.25,73686.0,-1.99,-14.43,-14.55,0,*57
1507140488.6,18924,13.25,73696.5,-2.01,-14.29,-14.51,0,*5A
1507140489.82,18925,13.25,73654.0,-2.05,-14.11,-14.29,0,*5B
1507140491.05,18926,13.25,73664.3,-2.05,-14.19,-14.43,0,*5C
1507140492.29,18927,13.25,73688.8,-2.05,-14.33,-14.47,0,*51
1507140493.52,18928,13.25,73674.0,-2.01,-14.23,-14.51,0,*5C
1507140494.78,18929,13.25,73670.5,-1.99,-14.29,-14.51,0,*55
1507140496.02,18930,13.25,73670.3,-2.01,-14.23,-14.51,0,*55
1507140497.28,18931,13.25,73680.5,-2.01,-14.43,-14.51,0,*52
1507140498.54,18932,13.25,73692.8,-1.99,-14.37,-14.55,0,*54